www.pogodaiklimat.ru

Погода и климат >> Архив погоды >> Россия >> Калининградская область >> Пионерский


ПОГОДА в Пионерском

  • Прогноз погоды в Пионерском
  • Монитор погоды в Пионерском

АРХИВ ПОГОДЫ в Пионерском

Время (UTC), дата Ветер
(напр.,м/с)
 
Видим.   Явления Облачность Т
(С)
Тd
(С)
f
(%)
Тe
(С)
Тes
(С)
Комфортность P
(гПа)
Po
(гПа)
Тmin
(С)
Tmax
(С)
R
(мм)
R24
(мм)
S
(см)
09 12.02 СЗ 5-11
{13}
10 км {ливн. осадки} 10/10 600 м
[Sc]
+2.0 -1.9 75 -3 -3 1015.1 1011.5
12 12.02 СЗ 5-12
{13}
10 км {ливн. осадки} 9/9 600 м
[Sc]
+2.6 -2.5 69 -2 -2 1018.3 1014.7
15 12.02 СЗ 2-8
{12}
10 км 6/6 600 м
[Sc]
+2.3 -1.3 77 -1 -1 1021.0 1017.4 0.1
18 12.02 З 3-6
{10}
10 км 3/3 600 м
[Sc]
+1.6 -2.2 76 -3 -3 1022.9 1019.3 +3.2 0.1
21 12.02 З 2-5
{7}
10 км ясно +1.6 -2.6 74 -2 -2 1023.4 1019.8
00 13.02 З 3-5
{6}
10 км ясно +1.6 -2.9 72 -2 -2 1023.5 1019.9
03 13.02 ЮЗ 4-8
{8}
10 км 6/6 600 м
[Sc]
+1.8 -0.9 82 -3 -3 1021.0 1017.4 +1.3
06 13.02 ЮЗ 5-10
{10}
4000 м слаб. ливневой дождь 10/10 300 м
[Cb calv]
+1.3 +0.4 94 -5 -5 1018.0 1014.4 +1.2 0.4
09 13.02 З 7-13
{14}
10 км {ливн. осадки} 10/10 300 м
[Sc]
+4.5 +3.5 93 -1 -1 1016.1 1012.6
12 13.02 З 8-15
{17}
10 км {ливн. осадки} 10/10 600 м
[Sc]
+5.3 +3.5 88 -1 -1 1016.7 1013.2
15 13.02 З 6-11
{15}
10 км 8/3 600 м
[Sc Ci fib]
+4.7 +2.8 87 -1 -1 1019.3 1015.8 2
18 13.02 З 6-11
{11}
10 км ясно +4.1 +2.6 90 -1 -1 1022.2 1018.6 +5.7 1
21 13.02 З 5-8
{11}
10 км ясно +3.9 +2.4 90 -1 -1 1023.6 1020.0
00 14.02 З 4-7
{9}
10 км ясно +3.8 +2.2 89 -1 -1 1025.1 1021.5
03 14.02 З 5-7
{9}
10 км ясно +3.5 +1.9 89 -2 -2 1026.7 1023.1 +3.5
06 14.02 З 5-10
{10}
4000 м дымка 10/10 600 м
[Sc]
+3.2 +2.3 94 -2 -2 1028.9 1025.3 +3.2
09 14.02 З 5-8
{10}
4000 м дымка 10/10 600 м
[Sc]
+3.7 +2.3 91 -2 -2 1030.2 1026.6
12 14.02 З 3-4
{8}
2000 м слаб. морось 10/10 300 м
[Frnb]
+4.4 +3.6 95 +1 +1 1031.2 1027.6
15 14.02 З 5-8
{8}
4000 м слаб. морось 10/10 300 м
[Frnb]
+4.8 +4.1 95 -0 -0 1030.8 1027.2 0.4
18 14.02 З 3-5
{8}
2000 м дымка 10/10 300 м
[St]
+4.0 +3.6 97 0 0 1031.0 1027.4 +5.3 0.4
21 14.02 З 4-7
{9}
4000 м дымка 10/10 300 м
[Sc]
+4.9 +4.0 94 +1 +1 1030.6 1027.0
00 15.02 З 5-10
{10}
4000 м дымка 10/10 300 м
[Sc]
+4.0 +2.8 92 -1 -1 1029.9 1026.3
03 15.02 ЮЗ 4-6
{11}
4000 м дымка 10/10 300 м
[Sc]
+3.3 +2.4 94 -2 -2 1029.3 1025.7 +2.9 0.1
06 15.02 З 3-5
{8}
4000 м дымка 10/10 300 м
[Sc]
+3.9 +2.9 93 0 0 1029.0 1025.4 +2.9 0.1
09 15.02 З 5-8
{9}
4000 м дымка 10/10 300 м
[Sc]
+4.3 +3.6 95 -1 -1 1030.2 1026.6
12 15.02 З 4-7
{8}
2000 м слаб. морось 10/10 300 м
[St]
+4.7 +4.1 96 0 0 1029.9 1026.3
15 15.02 З 4-7
{10}
4000 м дымка 10/10 300 м
[Sc]
+3.8 +3.2 96 -1 -1 1029.4 1025.8 0.2
18 15.02 З 3-6
{8}
4000 м дымка 10/10 300 м
[Sc]
+3.1 +2.7 97 -1 -1 1029.4 1025.8 +4.8 0.2
21 15.02 ЮЗ 4-6
{7}
2000 м дымка 10/10 300 м
[St]
+3.1 +2.7 97 -2 -2 1028.8 1025.2
00 16.02 ЮЗ 3-6
{6}
4000 м дымка 8/8 600 м
[Sc]
+2.2 +1.8 97 -2 -2 1028.1 1024.5
03 16.02 ЮЗ 4-6
{8}
4000 м дымка 8/8 600 м
[Sc]
+1.6 +1.0 96 -4 -4 1026.6 1023.0 +1.5 0.1
06 16.02 ЮЗ 4-6
{7}
4000 м дымка 4/0
[Ci fib]
+0.6 -0.2 94 -5 -5 1025.5 1021.9 +0.6
09 16.02 ЮЗ 4-6
{8}
4000 м дымка ясно +4.2 +1.0 80 -0 +2 1024.3 1020.7
12 16.02 Ю 5-8
{9}
10 км ясно +9.6 +0.2 52 +7 +8 1022.7 1019.2
15 16.02 ЮЗ 5-8
{10}
10 км ясно +9.0 +0.8 56 +6 +6 1020.3 1016.8
18 16.02 ЮЗ 5-9
{10}
10 км ясно +7.5 +1.3 65 +4 +4 1019.1 1015.6 +10.3
21 16.02 ЮЗ 6-10
{12}
10 км ясно +7.8 +0.3 59 +4 +4 1018.8 1015.3
00 17.02 З 6-10
{13}
10 км ясно +6.2 +2.4 77 +2 +2 1018.8 1015.3
03 17.02 З 5-9
{11}
10 км 6/6 600 м
[Sc]
+5.4 +3.2 86 +1 +1 1019.2 1015.7 +5.2
06 17.02 З 4-7
{9}
4000 м дымка 10/10 600 м
[Sc]
+5.1 +3.4 89 +1 +1 1019.8 1016.3 +5.1
09 17.02 З 5-7
{9}
4000 м дымка 10/10 600 м
[Sc]
+5.2 +3.7 90 +1 +1 1021.4 1017.9
12 17.02 З 4-7
{8}
4000 м дымка 10/10 600 м
[Sc]
+5.3 +3.5 88 +1 +1 1022.1 1018.6
15 17.02 З 4-7
{9}
4000 м дымка 10/10 600 м
[Sc]
+4.5 +3.3 92 0 0 1022.7 1019.1
18 17.02 З 2-4
{8}
10 км 10/10 600 м
[]
+3.7 +2.8 94 +1 +1 1023.4 1019.8 +5.7
21 17.02 З 2-2
{5}
2000 м дымка 10/10 600 м
[Sc]
+2.8 +2.2 96 -1 -1 1023.6 1020.0
00 18.02 ЮЗ 2-3
{5}
2000 м дымка 10/10 600 м
[Sc]
+2.4 +2.0 97 -1 -1 1024.0 1020.4
03 18.02 ЮЗ 1-1
{3}
2000 м дымка 10/10 600 м
[Sc]
+2.3 +1.9 97 0 0 1023.8 1020.2 +2.3
06 18.02 Ю 1-2
{3}
500 м туман ?/? +1.6 +1.3 98 -0 -0 1023.9 1020.3 +1.5
09 18.02 ЮВ 2-4
{4}
500 м туман ?/? +1.9 +1.6 98 -2 -2 1023.8 1020.2
12 18.02 Ю 3-5
{6}
1000 м дымка {туман} 10/10 300 м
[St]
+3.0 +2.6 97 -1 -1 1022.8 1019.2
15 18.02 ЮВ 2-4
{7}
10 км 4/0
[Ci fib]
+6.9 +3.5 79 +5 +5 1019.8 1016.3
18 18.02 Ю 2-4
{4}
10 км ясно +4.4 +1.9 84 +2 +2 1018.7 1015.1 +7.1
21 18.02 Ю 2-4
{6}
10 км ясно +3.8 +1.8 87 +1 +1 1017.4 1013.8
00 19.02 Ю 2-3
{3}
10 км ясно +2.2 +1.3 94 -1 -1 1015.6 1012.0
03 19.02 Ю 2-3
{4}
4000 м дымка ясно +1.4 +0.7 95 -2 -2 1013.1 1009.5 +1.2
06 19.02 Ю 3-5
{6}
4000 м дымка ясно +1.3 +0.3 93 -3 -3 1010.8 1007.2 +1.2

 

Местоположение метеостанции Пионерский (Калининградская область, Россия): широта 54.95 долгота 20.21 высота над уровнем моря 28 м.

В архиве по умолчанию представлена погода в Пионерском за последнюю неделю. Архивные данные за месяц целиком и за предыдущие месяцы, начиная с января 2011 года, Вы можете получить, выбрав интересующий диапазон дат из раскрывающегося списка и нажав кнопку "Ввод!".


*Определитесь, кто Вы:
робот инопланетянин человек

Внимание! Время в таблицах - всемирное. Для получения местного времени необходимо прибавить поправку, которая равна 2 ч.

Смотрите также архив погоды в соседних городах и на ближайших метеорологических станциях:

Погода в Рыбном Порту (Калининградская область, Россия) (32 км)
Погода в Калининграде (Калининградская область, Россия) (38 км)
Погода в Балтийске (Калининградская область, Россия) (40 км)
Погода в Рыбачем (Калининградская область, Россия) (46 км)
Погода в Мамоново (Калининградская область, Россия) (56 км)
Погода в Ниде (Литва) (66 км)
Погода в Шилуте (Литва) (91 км)
Погода в Железнодорожном (Калининградская область, Россия) (95 км)
Погода в Хеле (Польша) (97 км)
Погода в Эльблонге (Польша) (100 км)

Пояснения к столбцам:

Ветер - указаны скорость ветра в м/с - средняя за 10 мин, порывы в срок и между сроками (в фигурных скобках) и направление, откуда дует ветер: С - северный, СВ - северо-восточный, В - восточный, ЮВ - юго-восточный, Ю - южный, ЮЗ - юго-западный, З - западный, СЗ - северо-западный.
Видимость - горизонтальная дальность видимости в метрах или километрах. При видимости от 1 до 10 км при отсутствии осадков обычно наблюдается дымка, при ухудшении видимости до 1 км и менее - туман. В сухую погоду видимость может ухудшаться дымом, пылью или мглою.
Явления - указаны атмосферные явления, наблюдавшиеся в срок или в последний час перед сроком; фигурными скобками обозначены явления, наблюдавшиеся между сроками (за 1-3 часа до срока); квадратными скобками обозначены град или гололедные отложения с указанием их диаметра в мм.
Облачность - указаны через наклонную черту общая и нижняя облачность в баллах и высота нижней границы облаков в метрах; квадратными скобками обозначены формы облаков: Ci - перистые, Cs - перисто-слоистые, Cc - перисто-кучевые, Ac - высококучевые, As - высокослоистые, Sc - слоисто-кучевые, Ns - слоисто-дождевые, Cu - кучевые, Cb - кучево-дождевые. Подробнее классификацию облаков см. в Атласе облаков (PDF).
T - Температура воздуха - температура, измеренная на высоте 2 м над землей.
Td - Температура точки росы - температура, при понижении до которой содержащийся в воздухе водяной пар достигнет насыщения.
f - Относительная влажность воздуха - влажноcть воздуха, измеренная на высоте 2 м над землей.
Te - Эффективная температура - температура, которую ощущает одетый по сезону человек в тени. Характеристика душности погоды. При расчете учитывается влияние влажности воздуха и скорости ветра на теплоощущения человека.
Tes - Эффективная температура на солнце - температура, которую ощущает человек, с поправкой на солнечный нагрев. Характеристика знойности погоды. Зависит от высоты солнца над горизонтом, облачности и скорости ветра. Ночью, в пасмурную погоду, а также при ветре 12 м/с и более поправка равна нулю.
P - Атмосферное давление - приведенное к уровню моря атмосферное давление.
Po - Атмосферное давление - измеренное на уровне метеостанции атмосферное давление.
Tmin - Минимальная температура - минимум температуры воздуха на высоте 2 м над землей.
Tmax - Максимальная температура - максимум температуры воздуха на высоте 2 м над землей.
R - Количество осадков - Количество выпавших осадков за период времени, мм. При наведении курсора мыши на число - период времени, за который выпало указанное количество осадков.
R24 - Количество осадков - Количество выпавших осадков за 24 часа, мм.
S - Снежный покров - Высота снежного покрова, см. При наведении курсора мыши на число - состояние снежного покрова и степень покрытия местности в баллах.